| time (UTC) | temp F | wind direction | speed MPH | gust MPH | rain 1hr in | rain 24hr in | rain mn in | humidity % | barometer mb |
| 20260509021111 | 66 | 94 | 1.0 | 4.0 | 0.00 | 0.00 | 0.00 | 77 | 1013.6 |
| 20260509020610 | 66 | 109 | 1.0 | 3.0 | 0.00 | 0.00 | 0.00 | 77 | 1013.5 |
| 20260509020108 | 67 | 109 | 2.0 | 8.0 | 0.00 | 0.00 | 0.00 | 77 | 1013.7 |
| 20260509015608 | 67 | 109 | 3.0 | 8.0 | 0.00 | 0.00 | 0.00 | 76 | 1013.5 |
| 20260509015109 | 68 | 92 | 4.0 | 8.0 | 0.00 | 0.00 | 0.00 | 73 | 1013.5 |
| 20260509015105 | 68 | 109 | 4.0 | 8.0 | 0.00 | 0.00 | 0.00 | 74 | 1013.4 |
| 20260509014104 | 68 | 94 | 3.0 | 7.0 | 0.00 | 0.00 | 0.00 | 73 | 1013.4 |
| 20260509013608 | 68 | 74 | 3.0 | 6.0 | 0.00 | 0.00 | 0.00 | 73 | 1013.5 |
| 20260509013604 | 68 | 86 | 3.0 | 7.0 | 0.00 | 0.00 | 0.00 | 73 | 1013.4 |
| 20260509013212 | 68 | 71 | 3.0 | 6.0 | 0.00 | 0.00 | 0.00 | 72 | 1013.5 |
| 20260509012712 | 68 | 67 | 2.0 | 5.0 | 0.00 | 0.00 | 0.00 | 73 | 1013.4 |
| 20260509011605 | 68 | 67 | 2.0 | 5.0 | 0.00 | 0.00 | 0.00 | 73 | 1013.4 |
| 20260509011104 | 68 | 77 | 2.0 | 4.0 | 0.00 | 0.00 | 0.00 | 73 | 1013.5 |
| 20260509010604 | 68 | 84 | 3.0 | 4.0 | 0.00 | 0.00 | 0.00 | 74 | 1013.5 |
| 20260509010104 | 68 | 86 | 4.0 | 7.0 | 0.00 | 0.00 | 0.00 | 73 | 1013.2 |
| 20260509005605 | 68 | 105 | 5.0 | 7.0 | 0.00 | 0.00 | 0.00 | 73 | 1013.4 |
| 20260509005104 | 68 | 102 | 5.0 | 7.0 | 0.00 | 0.00 | 0.00 | 71 | 1013.4 |
| 20260509004604 | 69 | 114 | 3.0 | 7.0 | 0.00 | 0.00 | 0.00 | 70 | 1013.4 |
| 20260509004104 | 70 | 108 | 2.0 | 6.0 | 0.00 | 0.00 | 0.00 | 69 | 1013.6 |
| 20260509003608 | 72 | 43 | 0.0 | 2.0 | 0.00 | 0.00 | 0.00 | 66 | 1013.5 |
| 20260509003604 | 71 | 105 | 0.0 | 3.0 | 0.00 | 0.00 | 0.00 | 67 | 1013.5 |
| 20260509002604 | 73 | 43 | 0.0 | 2.0 | 0.00 | 0.00 | 0.00 | 66 | 1013.4 |
| 20260509002102 | 73 | 43 | 0.0 | 2.0 | 0.00 | 0.00 | 0.00 | 67 | 1013.4 |
| 20260509001606 | 73 | 43 | 1.0 | 3.0 | 0.00 | 0.00 | 0.00 | 68 | 1013.6 |
| 20260509001602 | 73 | 43 | 0.0 | 2.0 | 0.00 | 0.00 | 0.00 | 67 | 1013.5 |
| 20260509000601 | 73 | 43 | 1.0 | 3.0 | 0.00 | 0.00 | 0.00 | 68 | 1013.6 |
| 20260509000106 | 74 | 14 | 1.0 | 3.0 | 0.00 | 0.00 | 0.00 | 66 | 1013.6 |
| 20260508235102 | 75 | 53 | 1.0 | 3.0 | 0.00 | 0.00 | 0.00 | 65 | 1013.7 |
| 20260508234602 | 75 | 242 | 1.0 | 3.0 | 0.00 | 0.00 | 0.00 | 65 | 1013.7 |
| 20260508234102 | 75 | 171 | 1.0 | 4.0 | 0.00 | 0.00 | 0.00 | 64 | 1013.6 |
| 20260508233601 | 75 | 200 | 1.0 | 4.0 | 0.00 | 0.00 | 0.00 | 64 | 1013.6 |
| 20260508233100 | 75 | 45 | 2.0 | 5.0 | 0.00 | 0.00 | 0.00 | 65 | 1013.6 |
| 20260508232606 | 73 | 296 | 3.0 | 7.0 | 0.00 | 0.00 | 0.00 | 64 | 1013.7 |
| 20260508232602 | 74 | 313 | 2.0 | 7.0 | 0.00 | 0.00 | 0.00 | 62 | 1013.6 |
| 20260508231601 | 74 | 286 | 3.0 | 7.0 | 0.00 | 0.00 | 0.00 | 63 | 1013.7 |
| 20260508231059 | 75 | 267 | 2.0 | 7.0 | 0.00 | 0.00 | 0.00 | 61 | 1013.7 |
| 20260508230602 | 76 | 316 | 1.0 | 5.0 | 0.00 | 0.00 | 0.00 | 60 | 1013.8 |
| 20260508230100 | 76 | 237 | 1.0 | 5.0 | 0.00 | 0.00 | 0.00 | 62 | 1013.9 |
| 20260508225602 | 77 | 118 | 1.0 | 4.0 | 0.00 | 0.00 | 0.00 | 61 | 1013.9 |
| 20260508225100 | 76 | 98 | 0.0 | 3.0 | 0.00 | 0.00 | 0.00 | 62 | 1014.0 |
| 20260508224602 | 76 | 101 | 1.0 | 3.0 | 0.00 | 0.00 | 0.00 | 63 | 1014.0 |
| 20260508224058 | 76 | 161 | 1.0 | 4.0 | 0.00 | 0.00 | 0.00 | 63 | 1014.1 |
| 20260508223558 | 75 | 268 | 1.0 | 5.0 | 0.00 | 0.00 | 0.00 | 63 | 1014.1 |
| 20260508223058 | 76 | 43 | 1.0 | 5.0 | 0.00 | 0.00 | 0.00 | 65 | 1014.2 |
| 20260508222557 | 75 | 314 | 2.0 | 6.0 | 0.00 | 0.00 | 0.00 | 65 | 1014.2 |
| 20260508222102 | 74 | 340 | 2.0 | 6.0 | 0.00 | 0.00 | 0.00 | 67 | 1014.3 |
| 20260508222058 | 74 | 323 | 2.0 | 6.0 | 0.00 | 0.00 | 0.00 | 65 | 1014.3 |
| 20260508221057 | 74 | 14 | 2.0 | 6.0 | 0.00 | 0.00 | 0.00 | 67 | 1014.4 |
| 20260508220558 | 73 | 54 | 2.0 | 6.0 | 0.00 | 0.00 | 0.00 | 68 | 1014.4 |
| 20260508220058 | 71 | 19 | 2.0 | 6.0 | 0.00 | 0.00 | 0.00 | 73 | 1014.4 |
| 20260508215557 | 69 | 315 | 3.0 | 8.0 | 0.00 | 0.00 | 0.00 | 74 | 1014.5 |
| 20260508215102 | 68 | 259 | 3.0 | 10.0 | 0.00 | 0.00 | 0.00 | 74 | 1014.6 |
| 20260508215058 | 68 | 293 | 3.0 | 8.0 | 0.00 | 0.00 | 0.00 | 75 | 1014.6 |
| 20260508214058 | 69 | 253 | 3.0 | 10.0 | 0.00 | 0.00 | 0.00 | 72 | 1014.8 |
| 20260508213557 | 70 | 269 | 4.0 | 10.0 | 0.00 | 0.00 | 0.00 | 70 | 1014.8 |
| 20260508213057 | 71 | 265 | 3.0 | 10.0 | 0.00 | 0.00 | 0.00 | 70 | 1014.8 |
| 20260508212557 | 70 | 304 | 3.0 | 8.0 | 0.00 | 0.00 | 0.00 | 70 | 1014.9 |
| 20260508212058 | 71 | 263 | 3.0 | 8.0 | 0.00 | 0.00 | 0.00 | 70 | 1014.9 |
| 20260508211556 | 72 | 271 | 2.0 | 7.0 | 0.00 | 0.00 | 0.00 | 68 | 1014.9 |
| 20260508211055 | 73 | 275 | 2.0 | 6.0 | 0.00 | 0.00 | 0.00 | 66 | 1015.0 |
| 20260508210556 | 74 | 319 | 1.0 | 5.0 | 0.00 | 0.00 | 0.00 | 67 | 1015.0 |
| 20260508210055 | 74 | 320 | 1.0 | 5.0 | 0.00 | 0.00 | 0.00 | 68 | 1015.1 |
| 20260508205555 | 73 | 329 | 2.0 | 7.0 | 0.00 | 0.00 | 0.00 | 68 | 1015.1 |
| 20260508205056 | 72 | 37 | 3.0 | 7.0 | 0.00 | 0.00 | 0.00 | 70 | 1015.1 |
| 20260508204556 | 72 | 30 | 2.0 | 8.0 | 0.00 | 0.00 | 0.00 | 71 | 1015.2 |
| 20260508204100 | 71 | 9 | 3.0 | 9.0 | 0.00 | 0.00 | 0.00 | 73 | 1015.2 |
| 20260508204056 | 71 | 71 | 2.0 | 8.0 | 0.00 | 0.00 | 0.00 | 72 | 1015.2 |
| 20260508203100 | 70 | 345 | 2.0 | 8.0 | 0.00 | 0.00 | 0.00 | 76 | 1015.3 |
| 20260508203056 | 71 | 309 | 4.0 | 9.0 | 0.00 | 0.00 | 0.00 | 73 | 1015.3 |
| 20260508202055 | 67 | 291 | 2.0 | 8.0 | 0.00 | 0.00 | 0.00 | 78 | 1015.3 |
| 20260508201555 | 67 | 266 | 2.0 | 8.0 | 0.00 | 0.00 | 0.00 | 79 | 1015.3 |
| 20260508201055 | 65 | 265 | 2.0 | 6.0 | 0.00 | 0.00 | 0.00 | 81 | 1015.4 |
| 20260508200602 | 65 | 239 | 2.0 | 5.0 | 0.00 | 0.00 | 0.00 | 79 | 1015.5 |
| 20260508200556 | 65 | 254 | 2.0 | 6.0 | 0.00 | 0.00 | 0.00 | 81 | 1015.4 |
| 20260508195555 | 67 | 247 | 1.0 | 5.0 | 0.00 | 0.00 | 0.00 | 76 | 1015.4 |
| 20260508195053 | 68 | 213 | 2.0 | 9.0 | 0.00 | 0.00 | 0.00 | 75 | 1015.5 |
| 20260508194554 | 69 | 196 | 3.0 | 9.0 | 0.00 | 0.00 | 0.00 | 73 | 1015.5 |
| 20260508194053 | 69 | 30 | 3.0 | 9.0 | 0.00 | 0.00 | 0.00 | 73 | 1015.5 |
| 20260508193553 | 69 | 9 | 2.0 | 9.0 | 0.00 | 0.00 | 0.00 | 73 | 1015.6 |
| 20260508193056 | 68 | 292 | 1.0 | 7.0 | 0.00 | 0.00 | 0.00 | 76 | 1015.6 |
| 20260508193052 | 67 | 92 | 1.0 | 5.0 | 0.00 | 0.00 | 0.00 | 77 | 1015.7 |
| 20260508192056 | 67 | 144 | 1.0 | 10.0 | 0.00 | 0.00 | 0.00 | 76 | 1015.8 |
| 20260508192051 | 67 | 209 | 1.0 | 4.0 | 0.00 | 0.00 | 0.00 | 77 | 1015.7 |
| 20260508191551 | 67 | 78 | 1.0 | 10.0 | 0.00 | 0.00 | 0.00 | 77 | 1015.8 |
| 20260508190549 | 68 | 220 | 2.0 | 10.0 | 0.00 | 0.00 | 0.00 | 75 | 1015.8 |
| 20260508190047 | 68 | 97 | 3.0 | 10.0 | 0.00 | 0.00 | 0.00 | 76 | 1015.8 |
| 20260508185547 | 68 | 5 | 3.0 | 8.0 | 0.00 | 0.00 | 0.00 | 77 | 1015.8 |
| 20260508185055 | 67 | 5 | 2.0 | 7.0 | 0.00 | 0.00 | 0.00 | 77 | 1015.9 |
| 20260508185048 | 67 | 93 | 2.0 | 6.0 | 0.00 | 0.00 | 0.00 | 77 | 1015.8 |
| 20260508184047 | 67 | 65 | 2.0 | 7.0 | 0.00 | 0.00 | 0.00 | 78 | 1015.9 |
| 20260508183547 | 66 | 157 | 2.0 | 7.0 | 0.00 | 0.00 | 0.00 | 79 | 1015.9 |
| 20260508183047 | 66 | 91 | 2.0 | 7.0 | 0.00 | 0.00 | 0.00 | 80 | 1015.9 |
| 20260508182545 | 66 | 81 | 3.0 | 9.0 | 0.00 | 0.00 | 0.00 | 80 | 1015.9 |
| 20260508182044 | 65 | 25 | 3.0 | 9.0 | 0.00 | 0.00 | 0.00 | 81 | 1015.9 |
| 20260508181543 | 65 | 5 | 3.0 | 12.0 | 0.00 | 0.00 | 0.00 | 82 | 1015.8 |
| 20260508181043 | 65 | 108 | 2.0 | 12.0 | 0.00 | 0.00 | 0.00 | 82 | 1015.9 |
| 20260508180543 | 65 | 207 | 1.0 | 6.0 | 0.00 | 0.00 | 0.00 | 81 | 1015.9 |
| 20260508180043 | 65 | 132 | 1.0 | 7.0 | 0.00 | 0.00 | 0.00 | 81 | 1015.9 |
| 20260508175543 | 65 | 83 | 1.0 | 7.0 | 0.00 | 0.00 | 0.00 | 82 | 1016.0 |
| 20260508175047 | 63 | 107 | 1.0 | 9.0 | 0.00 | 0.00 | 0.00 | 85 | 1015.9 |
| 20260508175043 | 64 | 150 | 1.0 | 9.0 | 0.00 | 0.00 | 0.00 | 83 | 1016.0 |
| 20260508174043 | 63 | 130 | 0.0 | 3.0 | 0.00 | 0.00 | 0.00 | 85 | 1016.0 |
| 20260508173547 | 61 | 169 | 1.0 | 4.0 | 0.00 | 0.00 | 0.00 | 87 | 1016.0 |
| 20260508173543 | 62 | 181 | 1.0 | 4.0 | 0.00 | 0.00 | 0.00 | 86 | 1016.2 |
| 20260508172541 | 61 | 202 | 1.0 | 3.0 | 0.00 | 0.00 | 0.00 | 88 | 1016.0 |
| 20260508172041 | 60 | 202 | 1.0 | 3.0 | 0.00 | 0.00 | 0.00 | 88 | 1016.2 |
| 20260508171541 | 60 | 195 | 1.0 | 4.0 | 0.00 | 0.00 | 0.00 | 88 | 1016.0 |
| 20260508171041 | 60 | 204 | 1.0 | 4.0 | 0.00 | 0.00 | 0.00 | 87 | 1016.0 |
| 20260508170541 | 60 | 206 | 1.0 | 4.0 | 0.00 | 0.00 | 0.00 | 87 | 1016.0 |
| 20260508170041 | 60 | 178 | 1.0 | 4.0 | 0.00 | 0.00 | 0.00 | 88 | 1015.9 |
| 20260508165541 | 60 | 186 | 1.0 | 4.0 | 0.00 | 0.00 | 0.00 | 88 | 1016.0 |
| 20260508165041 | 60 | 195 | 1.0 | 3.0 | 0.00 | 0.00 | 0.00 | 88 | 1015.9 |
| 20260508164541 | 60 | 178 | 1.0 | 3.0 | 0.00 | 0.00 | 0.00 | 88 | 1015.9 |
| 20260508164042 | 60 | 214 | 1.0 | 3.0 | 0.00 | 0.00 | 0.00 | 88 | 1015.9 |
| 20260508163543 | 61 | 232 | 1.0 | 4.0 | 0.00 | 0.00 | 0.00 | 83 | 1015.9 |
| 20260508163539 | 60 | 213 | 2.0 | 4.0 | 0.00 | 0.00 | 0.00 | 86 | 1015.9 |
| 20260508162539 | 62 | 205 | 1.0 | 4.0 | 0.00 | 0.00 | 0.00 | 80 | 1015.9 |
| 20260508162043 | 66 | 130 | 0.0 | 2.0 | 0.00 | 0.00 | 0.00 | 77 | 1015.8 |
| 20260508162039 | 64 | 184 | 1.0 | 4.0 | 0.00 | 0.00 | 0.00 | 77 | 1015.9 |
| 20260508161642 | 66 | 189 | 0.0 | 4.0 | 0.00 | 0.00 | 0.00 | 76 | 1015.8 |
| 20260508161142 | 66 | 200 | 0.0 | 2.0 | 0.00 | 0.00 | 0.00 | 75 | 1015.8 |
| 20260508160037 | 66 | 130 | 0.0 | 3.0 | 0.00 | 0.00 | 0.00 | 78 | 1015.8 |
| 20260508155537 | 66 | 142 | 0.0 | 3.0 | 0.00 | 0.00 | 0.00 | 77 | 1015.8 |
| 20260508155041 | 65 | 89 | 0.0 | 3.0 | 0.00 | 0.00 | 0.00 | 78 | 1015.7 |
| 20260508155037 | 66 | 175 | 1.0 | 3.0 | 0.00 | 0.00 | 0.00 | 77 | 1015.8 |
| 20260508154037 | 65 | 40 | 0.0 | 2.0 | 0.00 | 0.00 | 0.00 | 79 | 1015.7 |
| 20260508153537 | 64 | 40 | 0.0 | 2.0 | 0.00 | 0.00 | 0.00 | 80 | 1015.8 |
| 20260508153037 | 64 | 5 | 0.0 | 2.0 | 0.00 | 0.00 | 0.00 | 79 | 1015.8 |
| 20260508152537 | 64 | 192 | 0.0 | 2.0 | 0.00 | 0.00 | 0.00 | 78 | 1015.7 |
| 20260508152037 | 63 | 0 | 0.0 | 1.0 | 0.00 | 0.00 | 0.00 | 78 | 1015.8 |
| 20260508151537 | 63 | 0 | 0.0 | 1.0 | 0.00 | 0.00 | 0.00 | 79 | 1015.9 |
| 20260508151041 | 62 | 0 | 0.0 | 3.0 | 0.00 | 0.00 | 0.00 | 80 | 1015.8 |
| 20260508151037 | 62 | 0 | 0.0 | 3.0 | 0.00 | 0.00 | 0.00 | 78 | 1015.8 |
| 20260508150036 | 62 | 0 | 2.0 | 4.0 | 0.00 | 0.00 | 0.00 | 76 | 1015.9 |
| 20260508145541 | 62 | 49 | 2.0 | 4.0 | 0.00 | 0.00 | 0.00 | 78 | 1015.7 |
| 20260508145536 | 62 | 0 | 3.0 | 4.0 | 0.00 | 0.00 | 0.00 | 78 | 1015.7 |
| 20260508144538 | 62 | 49 | 1.0 | 4.0 | 0.00 | 0.00 | 0.00 | 77 | 1015.8 |
| 20260508144037 | 62 | 49 | 1.0 | 3.0 | 0.00 | 0.00 | 0.00 | 79 | 1015.8 |
| 20260508143536 | 62 | 49 | 2.0 | 3.0 | 0.00 | 0.00 | 0.00 | 77 | 1015.8 |
| 20260508143037 | 62 | 49 | 1.0 | 3.0 | 0.00 | 0.00 | 0.00 | 76 | 1015.8 |
| 20260508142534 | 62 | 49 | 1.0 | 3.0 | 0.00 | 0.00 | 0.00 | 78 | 1015.8 |
| 20260508142035 | 63 | 49 | 0.0 | 2.0 | 0.00 | 0.00 | 0.00 | 74 | 1015.8 |
| 20260508141536 | 63 | 49 | 1.0 | 2.0 | 0.00 | 0.00 | 0.00 | 74 | 1015.8 |
| 20260508141036 | 62 | 49 | 1.0 | 2.0 | 0.00 | 0.00 | 0.00 | 74 | 1015.8 |
| 20260508140536 | 62 | 49 | 0.0 | 3.0 | 0.00 | 0.00 | 0.00 | 76 | 1015.7 |
| 20260508140035 | 62 | 49 | 0.0 | 3.0 | 0.00 | 0.00 | 0.00 | 76 | 1015.7 |
| 20260508135536 | 62 | 192 | 0.0 | 2.0 | 0.00 | 0.00 | 0.00 | 76 | 1015.7 |
| 20260508135036 | 62 | 192 | 0.0 | 2.0 | 0.00 | 0.00 | 0.00 | 76 | 1015.7 |
| 20260508134540 | 62 | 94 | 1.0 | 2.0 | 0.00 | 0.00 | 0.00 | 76 | 1015.5 |
| 20260508134536 | 62 | 94 | 0.0 | 1.0 | 0.00 | 0.00 | 0.00 | 76 | 1015.6 |
| 20260508133535 | 61 | 94 | 1.0 | 2.0 | 0.00 | 0.00 | 0.00 | 76 | 1015.6 |
| 20260508133040 | 61 | 94 | 0.0 | 1.0 | 0.00 | 0.00 | 0.00 | 78 | 1015.6 |
| 20260508133035 | 61 | 94 | 0.0 | 2.0 | 0.00 | 0.00 | 0.00 | 77 | 1015.5 |
| 20260508132644 | 60 | 94 | 0.0 | 2.0 | 0.00 | 0.00 | 0.00 | 78 | 1015.5 |
| 20260508131536 | 61 | 94 | 0.0 | 2.0 | 0.00 | 0.00 | 0.00 | 78 | 1015.4 |
| 20260508131036 | 61 | 94 | 1.0 | 2.0 | 0.00 | 0.00 | 0.00 | 77 | 1015.4 |
| 20260508130540 | 61 | 94 | 0.0 | 1.0 | 0.00 | 0.00 | 0.00 | 77 | 1015.3 |
| 20260508130536 | 61 | 94 | 1.0 | 2.0 | 0.00 | 0.00 | 0.00 | 77 | 1015.3 |
| 20260508125535 | 61 | 94 | 0.0 | 0.0 | 0.00 | 0.00 | 0.00 | 77 | 1015.4 |
| 20260508125036 | 61 | 94 | 0.0 | 0.0 | 0.00 | 0.00 | 0.00 | 76 | 1015.4 |
| 20260508124534 | 61 | 94 | 0.0 | 0.0 | 0.00 | 0.00 | 0.00 | 76 | 1015.3 |
| 20260508124033 | 61 | 94 | 0.0 | 2.0 | 0.00 | 0.00 | 0.00 | 76 | 1015.3 |
| 20260508123531 | 62 | 94 | 0.0 | 2.0 | 0.00 | 0.00 | 0.00 | 76 | 1015.3 |
| 20260508123036 | 62 | 94 | 0.0 | 2.0 | 0.00 | 0.00 | 0.00 | 76 | 1015.3 |
| 20260508123031 | 62 | 94 | 0.0 | 2.0 | 0.00 | 0.00 | 0.00 | 78 | 1015.2 |
| 20260508122028 | 62 | 94 | 0.0 | 2.0 | 0.00 | 0.00 | 0.00 | 78 | 1015.2 |
| 20260508121526 | 61 | 94 | 0.0 | 2.0 | 0.00 | 0.00 | 0.00 | 79 | 1015.2 |
| 20260508121026 | 61 | 94 | 0.0 | 2.0 | 0.00 | 0.00 | 0.00 | 79 | 1015.1 |
| 20260508120526 | 60 | 94 | 0.0 | 1.0 | 0.00 | 0.00 | 0.00 | 77 | 1015.1 |
| 20260508120026 | 60 | 94 | 0.0 | 1.0 | 0.00 | 0.00 | 0.00 | 79 | 1015.1 |
| 20260508115526 | 60 | 94 | 0.0 | 1.0 | 0.00 | 0.00 | 0.00 | 80 | 1015.1 |
| 20260508115026 | 60 | 94 | 0.0 | 2.0 | 0.00 | 0.00 | 0.00 | 79 | 1015.1 |
| 20260508114526 | 60 | 94 | 1.0 | 2.0 | 0.00 | 0.00 | 0.00 | 82 | 1015.1 |
| 20260508114026 | 60 | 94 | 1.0 | 2.0 | 0.00 | 0.00 | 0.00 | 80 | 1015.1 |
| 20260508113526 | 59 | 94 | 1.0 | 2.0 | 0.00 | 0.00 | 0.00 | 81 | 1015.1 |
| 20260508113031 | 59 | 264 | 0.0 | 3.0 | 0.00 | 0.00 | 0.00 | 82 | 1015.1 |
| 20260508113025 | 59 | 84 | 1.0 | 2.0 | 0.00 | 0.00 | 0.00 | 82 | 1015.1 |
| 20260508112024 | 60 | 249 | 1.0 | 3.0 | 0.00 | 0.00 | 0.00 | 82 | 1015.1 |
| 20260508111523 | 60 | 200 | 1.0 | 3.0 | 0.00 | 0.00 | 0.00 | 82 | 1015.1 |
| 20260508111022 | 60 | 189 | 1.0 | 3.0 | 0.00 | 0.00 | 0.00 | 81 | 1015.1 |
| 20260508110522 | 59 | 202 | 1.0 | 2.0 | 0.00 | 0.00 | 0.00 | 80 | 1015.1 |
| 20260508110022 | 59 | 191 | 1.0 | 3.0 | 0.00 | 0.00 | 0.00 | 81 | 1015.1 |
| 20260508105523 | 59 | 180 | 2.0 | 4.0 | 0.00 | 0.00 | 0.00 | 82 | 1015.0 |
| 20260508105022 | 60 | 130 | 1.0 | 4.0 | 0.00 | 0.00 | 0.00 | 81 | 1015.0 |
| 20260508104521 | 59 | 19 | 2.0 | 4.0 | 0.00 | 0.00 | 0.00 | 80 | 1015.0 |
| 20260508104022 | 60 | 35 | 2.0 | 4.0 | 0.00 | 0.00 | 0.00 | 82 | 1015.1 |
| 20260508103520 | 60 | 67 | 1.0 | 3.0 | 0.00 | 0.00 | 0.00 | 80 | 1015.2 |
| 20260508103020 | 60 | 67 | 2.0 | 4.0 | 0.00 | 0.00 | 0.00 | 80 | 1015.1 |
| 20260508102520 | 59 | 45 | 3.0 | 5.0 | 0.00 | 0.00 | 0.00 | 80 | 1015.0 |
| 20260508102020 | 59 | 55 | 3.0 | 5.0 | 0.00 | 0.00 | 0.00 | 80 | 1015.0 |
| 20260508101520 | 59 | 33 | 4.0 | 6.0 | 0.00 | 0.00 | 0.00 | 80 | 1015.0 |
| 20260508101020 | 59 | 38 | 4.0 | 6.0 | 0.00 | 0.00 | 0.00 | 81 | 1015.2 |
| 20260508100520 | 58 | 43 | 3.0 | 5.0 | 0.00 | 0.00 | 0.00 | 81 | 1015.1 |
| 20260508100024 | 58 | 55 | 1.0 | 5.0 | 0.00 | 0.00 | 0.00 | 83 | 1015.1 |
| 20260508100020 | 58 | 74 | 2.0 | 5.0 | 0.00 | 0.00 | 0.00 | 83 | 1015.1 |
| 20260508095628 | 58 | 25 | 2.0 | 5.0 | 0.00 | 0.00 | 0.00 | 84 | 1015.2 |
| 20260508094522 | 58 | 355 | 5.0 | 8.0 | 0.00 | 0.00 | 0.00 | 84 | 1015.1 |
| 20260508094518 | 58 | 310 | 4.0 | 6.0 | 0.00 | 0.00 | 0.00 | 84 | 1015.1 |
| 20260508094125 | 58 | 315 | 6.0 | 9.0 | 0.00 | 0.00 | 0.00 | 84 | 1015.2 |
| 20260508093020 | 58 | 355 | 6.0 | 9.0 | 0.00 | 0.00 | 0.00 | 84 | 1015.1 |
| 20260508093016 | 58 | 29 | 6.0 | 8.0 | 0.00 | 0.00 | 0.00 | 84 | 1015.1 |
| 20260508092016 | 58 | 42 | 6.0 | 8.0 | 0.00 | 0.00 | 0.00 | 84 | 1015.2 |
| 20260508091516 | 58 | 24 | 5.0 | 8.0 | 0.00 | 0.00 | 0.00 | 82 | 1015.1 |
| 20260508091016 | 60 | 29 | 4.0 | 6.0 | 0.00 | 0.00 | 0.00 | 78 | 1015.2 |
| 20260508090513 | 61 | 20 | 4.0 | 7.0 | 0.00 | 0.00 | 0.00 | 76 | 1015.1 |
| 20260508090013 | 62 | 20 | 4.0 | 7.0 | 0.00 | 0.00 | 0.00 | 76 | 1015.2 |
| 20260508085517 | 62 | 11 | 3.0 | 5.0 | 0.00 | 0.00 | 0.00 | 76 | 1015.3 |
| 20260508085513 | 62 | 20 | 4.0 | 5.0 | 0.00 | 0.00 | 0.00 | 77 | 1015.3 |
| 20260508084515 | 62 | 253 | 1.0 | 3.0 | 0.00 | 0.00 | 0.00 | 76 | 1015.3 |
| 20260508084511 | 62 | 18 | 2.0 | 4.0 | 0.00 | 0.00 | 0.00 | 76 | 1015.3 |
| 20260508083511 | 62 | 263 | 1.0 | 2.0 | 0.00 | 0.00 | 0.00 | 76 | 1015.4 |
| 20260508083015 | 62 | 36 | 1.0 | 2.0 | 0.00 | 0.00 | 0.00 | 75 | 1015.4 |
| 20260508083011 | 62 | 270 | 1.0 | 2.0 | 0.00 | 0.00 | 0.00 | 75 | 1015.4 |
| 20260508082011 | 63 | 202 | 0.0 | 1.0 | 0.00 | 0.00 | 0.00 | 75 | 1015.5 |
| 20260508081511 | 62 | 163 | 0.0 | 1.0 | 0.00 | 0.00 | 0.00 | 76 | 1015.5 |
| 20260508081011 | 62 | 169 | 0.0 | 0.0 | 0.00 | 0.00 | 0.00 | 77 | 1015.6 |
| 20260508080508 | 62 | 152 | 0.0 | 0.0 | 0.00 | 0.00 | 0.00 | 76 | 1015.7 |
| 20260508080008 | 62 | 127 | 0.0 | 0.0 | 0.00 | 0.00 | 0.00 | 77 | 1015.7 |
| 20260508075507 | 61 | 130 | 0.0 | 0.0 | 0.00 | 0.00 | 0.00 | 77 | 1015.8 |
| 20260508075005 | 61 | 127 | 0.0 | 1.0 | 0.00 | 0.00 | 0.00 | 78 | 1015.8 |
| 20260508074505 | 60 | 112 | 0.0 | 3.0 | 0.00 | 0.00 | 0.00 | 78 | 1015.8 |
| 20260508074003 | 61 | 61 | 0.0 | 3.0 | 0.00 | 0.00 | 0.00 | 78 | 1015.7 |
| 20260508073503 | 61 | 355 | 0.0 | 3.0 | 0.00 | 0.00 | 0.00 | 78 | 1015.9 |
| 20260508073007 | 62 | 355 | 0.0 | 3.0 | 0.00 | 0.00 | 0.00 | 75 | 1015.9 |
| 20260508073003 | 61 | 5 | 0.0 | 3.0 | 0.00 | 0.00 | 0.00 | 77 | 1015.8 |
| 20260508072004 | 63 | 355 | 0.0 | 2.0 | 0.00 | 0.00 | 0.00 | 73 | 1015.8 |
| 20260508071503 | 64 | 349 | 0.0 | 2.0 | 0.00 | 0.00 | 0.00 | 72 | 1015.7 |
| 20260508071009 | 65 | 31 | 1.0 | 5.0 | 0.00 | 0.00 | 0.00 | 72 | 1015.6 |
| 20260508071003 | 64 | 31 | 0.0 | 2.0 | 0.00 | 0.00 | 0.00 | 72 | 1015.7 |
| 20260508070004 | 65 | 88 | 2.0 | 5.0 | 0.00 | 0.00 | 0.00 | 72 | 1015.7 |
| 20260508065505 | 65 | 21 | 4.0 | 5.0 | 0.00 | 0.00 | 0.00 | 73 | 1015.7 |
| 20260508065501 | 65 | 71 | 3.0 | 5.0 | 0.00 | 0.00 | 0.00 | 72 | 1015.7 |
| 20260508064501 | 65 | 46 | 4.0 | 5.0 | 0.00 | 0.00 | 0.00 | 72 | 1015.7 |
| 20260508064005 | 66 | 61 | 2.0 | 4.0 | 0.00 | 0.00 | 0.00 | 71 | 1015.7 |
| 20260508064001 | 66 | 40 | 3.0 | 5.0 | 0.00 | 0.00 | 0.00 | 71 | 1015.7 |
| 20260508063001 | 66 | 331 | 3.0 | 4.0 | 0.00 | 0.00 | 0.00 | 72 | 1015.7 |
| 20260508062501 | 65 | 321 | 3.0 | 4.0 | 0.00 | 0.00 | 0.00 | 70 | 1015.6 |
| 20260508062001 | 66 | 30 | 3.0 | 5.0 | 0.00 | 0.00 | 0.00 | 70 | 1015.6 |
| 20260508061501 | 65 | 30 | 3.0 | 5.0 | 0.00 | 0.00 | 0.00 | 70 | 1015.7 |
| 20260508061000 | 65 | 340 | 3.0 | 5.0 | 0.00 | 0.00 | 0.00 | 68 | 1015.6 |
| 20260508060459 | 66 | 332 | 4.0 | 5.0 | 0.00 | 0.00 | 0.00 | 66 | 1015.6 |
| 20260508055959 | 66 | 9 | 4.0 | 7.0 | 0.00 | 0.00 | 0.00 | 66 | 1015.7 |
| 20260508055459 | 66 | 22 | 5.0 | 7.0 | 0.00 | 0.00 | 0.00 | 65 | 1015.7 |
| 20260508054959 | 67 | 22 | 5.0 | 8.0 | 0.00 | 0.00 | 0.00 | 65 | 1015.7 |
| 20260508054503 | 67 | 56 | 5.0 | 8.0 | 0.00 | 0.00 | 0.00 | 66 | 1015.7 |
| 20260508054459 | 67 | 36 | 5.0 | 8.0 | 0.00 | 0.00 | 0.00 | 65 | 1015.7 |
| 20260508053459 | 67 | 58 | 5.0 | 8.0 | 0.00 | 0.00 | 0.00 | 67 | 1015.7 |
| 20260508052959 | 67 | 53 | 4.0 | 6.0 | 0.00 | 0.00 | 0.00 | 67 | 1015.7 |
| 20260508052458 | 67 | 60 | 4.0 | 6.0 | 0.00 | 0.00 | 0.00 | 67 | 1015.7 |
| 20260508051958 | 67 | 59 | 2.0 | 6.0 | 0.00 | 0.00 | 0.00 | 67 | 1015.7 |
| 20260508051457 | 66 | 55 | 2.0 | 4.0 | 0.00 | 0.00 | 0.00 | 67 | 1015.7 |
| 20260508051002 | 66 | 0 | 2.0 | 4.0 | 0.00 | 0.00 | 0.00 | 65 | 1015.7 |
| 20260508050957 | 66 | 0 | 2.0 | 3.0 | 0.00 | 0.00 | 0.00 | 65 | 1015.7 |
| 20260508050000 | 66 | 0 | 1.0 | 4.0 | 0.00 | 0.00 | 0.00 | 67 | 1015.7 |
| 20260508045956 | 66 | 0 | 1.0 | 4.0 | 0.00 | 0.00 | 0.00 | 65 | 1015.7 |
| 20260508044957 | 67 | 0 | 1.0 | 4.0 | 0.00 | 0.00 | 0.00 | 66 | 1015.6 |
| 20260508044456 | 67 | 0 | 1.0 | 4.0 | 0.00 | 0.00 | 0.00 | 67 | 1015.6 |
| 20260508043957 | 67 | 22 | 0.0 | 3.0 | 0.00 | 0.00 | 0.00 | 66 | 1015.7 |
| 20260508043456 | 67 | 22 | 1.0 | 3.0 | 0.00 | 0.00 | 0.00 | 67 | 1015.6 |
| 20260508042957 | 68 | 26 | 1.0 | 2.0 | 0.00 | 0.00 | 0.00 | 66 | 1015.5 |
| 20260508042457 | 68 | 40 | 0.0 | 2.0 | 0.00 | 0.00 | 0.00 | 65 | 1015.4 |
| 20260508041957 | 68 | 40 | 0.0 | 1.0 | 0.00 | 0.00 | 0.00 | 64 | 1015.4 |
| 20260508041456 | 68 | 40 | 0.0 | 1.0 | 0.00 | 0.00 | 0.00 | 64 | 1015.3 |
| 20260508040955 | 68 | 40 | 0.0 | 1.0 | 0.00 | 0.00 | 0.00 | 64 | 1015.3 |
| 20260508040455 | 68 | 40 | 0.0 | 2.0 | 0.00 | 0.00 | 0.00 | 64 | 1015.2 |
| 20260508035955 | 68 | 40 | 1.0 | 2.0 | 0.00 | 0.00 | 0.00 | 64 | 1015.3 |
| 20260508035455 | 68 | 32 | 0.0 | 2.0 | 0.00 | 0.00 | 0.00 | 64 | 1015.1 |
| 20260508034955 | 69 | 221 | 0.0 | 0.0 | 0.00 | 0.00 | 0.00 | 64 | 1015.1 |
| 20260508034454 | 69 | 221 | 0.0 | 0.0 | 0.00 | 0.00 | 0.00 | 64 | 1015.1 |
| 20260508033955 | 69 | 221 | 0.0 | 1.0 | 0.00 | 0.00 | 0.00 | 65 | 1015.1 |
| 20260508033455 | 69 | 221 | 0.0 | 1.0 | 0.00 | 0.00 | 0.00 | 65 | 1015.1 |
| 20260508032959 | 69 | 221 | 0.0 | 1.0 | 0.00 | 0.00 | 0.00 | 64 | 1014.9 |
| 20260508032955 | 69 | 221 | 0.0 | 1.0 | 0.00 | 0.00 | 0.00 | 64 | 1014.9 |
| 20260508031956 | 69 | 221 | 0.0 | 4.0 | 0.00 | 0.00 | 0.00 | 65 | 1014.9 |
| 20260508031454 | 69 | 221 | 1.0 | 4.0 | 0.00 | 0.00 | 0.00 | 64 | 1014.8 |
| 20260508030954 | 69 | 221 | 2.0 | 4.0 | 0.00 | 0.00 | 0.00 | 64 | 1014.8 |
| 20260508030453 | 69 | 221 | 3.0 | 7.0 | 0.00 | 0.00 | 0.00 | 63 | 1014.6 |
| 20260508025953 | 69 | 230 | 4.0 | 7.0 | 0.00 | 0.00 | 0.00 | 63 | 1014.5 |
| 20260508025450 | 70 | 225 | 4.0 | 8.0 | 0.00 | 0.00 | 0.00 | 62 | 1014.5 |
| 20260508024950 | 70 | 221 | 4.0 | 8.0 | 0.00 | 0.00 | 0.00 | 61 | 1014.5 |
| 20260508024451 | 70 | 233 | 3.0 | 6.0 | 0.00 | 0.00 | 0.00 | 60 | 1014.5 |
| 20260508023951 | 70 | 253 | 2.0 | 6.0 | 0.00 | 0.00 | 0.00 | 60 | 1014.5 |
| 20260508023451 | 71 | 223 | 1.0 | 3.0 | 0.00 | 0.00 | 0.00 | 59 | 1014.4 |
| 20260508022951 | 71 | 273 | 0.0 | 2.0 | 0.00 | 0.00 | 0.00 | 59 | 1014.4 |
| 20260508022451 | 71 | 273 | 0.0 | 2.0 | 0.00 | 0.00 | 0.00 | 59 | 1014.3 |
| 20260508021951 | 71 | 273 | 1.0 | 2.0 | 0.00 | 0.00 | 0.00 | 60 | 1014.3 |